• In Hungary
  • List of Countries
  • For 7 days
  • Water Temperature
  • Satellite Maps
  • Weather Map
  • News
  • Weather Widgets
  • user-avatar
    Login

    Hourly Weather San Juan Cotzal

    Today, 20 February, Tuesday

    Time Temperature Precipitation Wind Pressure Humidity
    00:00 +19°C° 0 mm 0 mps 716 mmHg 94%
    01:00 +18°C° 0 mm 0 mps 716 mmHg 95%
    02:00 +18°C° 0 mm 0 mps 716 mmHg 95%
    03:00 +18°C° 0 mm 0 mps 715 mmHg 96%
    04:00 +17°C° 0 mm 0 mps 716 mmHg 96%
    05:00 +17°C° 0 mm 0 mps 716 mmHg 96%
    06:00 +17°C° 0 mm 0 mps 716 mmHg 95%
    07:00 +19°C° 0 mm 0 mps 716 mmHg 85%
    08:00 +21°C° 0 mm 0 mps 716 mmHg 76%
    09:00 +24°C° 0 mm 0 mps 717 mmHg 66%
    10:00 +28°C° 0 mm 1 mps 717 mmHg 59%
    11:00 +30°C° 0 mm 1 mps 717 mmHg 52%
    12:00 +32°C° 0 mm 1 mps 717 mmHg 45%
    13:00 +32°C° 0.2 mm 1 mps 716 mmHg 48%
    14:00 +31°C° 0.2 mm 1 mps 715 mmHg 51%
    15:00 +31°C° 0.2 mm 2 mps 715 mmHg 54%
    16:00 +29°C° 0.7 mm 1 mps 715 mmHg 62%
    17:00 +28°C° 0.7 mm 1 mps 715 mmHg 70%
    18:00 +26°C° 0.7 mm 1 mps 715 mmHg 79%
    19:00 +25°C° 1 mm 1 mps 716 mmHg 82%
    20:00 +24°C° 1 mm 1 mps 716 mmHg 85%
    21:00 +23°C° 1 mm 1 mps 717 mmHg 89%
    22:00 +22°C° 0 mm 1 mps 717 mmHg 91%
    23:00 +22°C° 0 mm 1 mps 717 mmHg 93%

    Tomorrow, 21 February, Wednesday

    Time Temperature Precipitation Wind Pressure Humidity
    00:00 +19°C° 0 mm 0 mps 717 mmHg 95%
    01:00 +19°C° 0 mm 0 mps 717 mmHg 96%
    02:00 +19°C° 0 mm 0 mps 717 mmHg 96%
    03:00 +18°C° 0 mm 0 mps 716 mmHg 97%
    04:00 +18°C° 0 mm 0 mps 716 mmHg 97%
    05:00 +18°C° 0 mm 0 mps 717 mmHg 96%
    06:00 +18°C° 0 mm 0 mps 717 mmHg 96%
    07:00 +20°C° 0 mm 0 mps 717 mmHg 89%
    08:00 +22°C° 0 mm 0 mps 717 mmHg 83%
    09:00 +26°C° 0 mm 1 mps 718 mmHg 76%
    10:00 +27°C° 0 mm 1 mps 718 mmHg 69%
    11:00 +29°C° 0 mm 1 mps 718 mmHg 63%
    12:00 +30°C° 0 mm 2 mps 717 mmHg 56%
    13:00 +30°C° 0.2 mm 2 mps 717 mmHg 56%
    14:00 +30°C° 0.2 mm 2 mps 716 mmHg 56%
    15:00 +31°C° 0.2 mm 2 mps 716 mmHg 55%
    16:00 +29°C° 0.2 mm 2 mps 716 mmHg 62%
    17:00 +28°C° 0.2 mm 1 mps 716 mmHg 68%
    18:00 +26°C° 0.2 mm 1 mps 716 mmHg 75%
    19:00 +25°C° 0 mm 1 mps 717 mmHg 78%
    20:00 +24°C° 0 mm 1 mps 717 mmHg 82%
    21:00 +23°C° 0 mm 1 mps 718 mmHg 86%
    22:00 +22°C° 0 mm 1 mps 718 mmHg 87%
    23:00 +21°C° 0 mm 1 mps 718 mmHg 89%

    Day after tomorrow, 22 February, Thursday

    Time Temperature Precipitation Wind Pressure Humidity
    00:00 +21°C° 0 mm 1 mps 718 mmHg 91%
    01:00 +20°C° 0 mm 1 mps 718 mmHg 91%
    02:00 +18°C° 0 mm 0 mps 718 mmHg 91%
    03:00 +18°C° 0 mm 0 mps 717 mmHg 92%
    04:00 +17°C° 0 mm 0 mps 717 mmHg 92%
    05:00 +17°C° 0 mm 0 mps 717 mmHg 91%
    06:00 +17°C° 0 mm 0 mps 718 mmHg 91%
    07:00 +21°C° 0 mm 1 mps 718 mmHg 84%
    08:00 +23°C° 0 mm 1 mps 719 mmHg 78%
    09:00 +25°C° 0 mm 1 mps 719 mmHg 71%
    10:00 +27°C° 0 mm 1 mps 719 mmHg 65%
    11:00 +28°C° 0 mm 1 mps 719 mmHg 59%
    12:00 +30°C° 0 mm 2 mps 718 mmHg 54%
    13:00 +30°C° 0.1 mm 2 mps 718 mmHg 54%
    14:00 +30°C° 0.1 mm 2 mps 717 mmHg 53%
    15:00 +30°C° 0.1 mm 2 mps 716 mmHg 53%
    16:00 +29°C° 0.1 mm 2 mps 716 mmHg 62%
    17:00 +27°C° 0.1 mm 1 mps 716 mmHg 71%
    18:00 +25°C° 0.1 mm 1 mps 716 mmHg 80%
    19:00 +25°C° 0.1 mm 1 mps 717 mmHg 83%
    20:00 +24°C° 0.1 mm 1 mps 718 mmHg 87%
    21:00 +23°C° 0.1 mm 1 mps 719 mmHg 90%
    22:00 +22°C° 0.1 mm 1 mps 719 mmHg 91%
    23:00 +22°C° 0.1 mm 1 mps 719 mmHg 91%

    23 February, Friday

    Time Temperature Precipitation Wind Pressure Humidity
    00:00 +21°C° 0.1 mm 1 mps 719 mmHg 92%
    01:00 +20°C° 0 mm 1 mps 718 mmHg 91%
    02:00 +20°C° 0 mm 1 mps 718 mmHg 91%
    03:00 +19°C° 0 mm 1 mps 717 mmHg 91%
    04:00 +19°C° 0 mm 1 mps 717 mmHg 90%
    05:00 +19°C° 0 mm 1 mps 717 mmHg 89%
    06:00 +19°C° 0 mm 1 mps 717 mmHg 88%
    07:00 +21°C° 0 mm 1 mps 718 mmHg 81%
    08:00 +23°C° 0 mm 1 mps 719 mmHg 74%
    09:00 +25°C° 0 mm 1 mps 719 mmHg 67%
    10:00 +26°C° 0 mm 1 mps 719 mmHg 63%
    11:00 +28°C° 0 mm 1 mps 718 mmHg 58%
    12:00 +30°C° 0 mm 1 mps 718 mmHg 53%
    13:00 +30°C° 0.2 mm 2 mps 717 mmHg 53%
    14:00 +30°C° 0.2 mm 2 mps 716 mmHg 53%
    15:00 +30°C° 0.2 mm 2 mps 715 mmHg 54%
    16:00 +29°C° 0.2 mm 2 mps 715 mmHg 61%
    17:00 +27°C° 0.2 mm 1 mps 715 mmHg 69%
    18:00 +25°C° 0.2 mm 1 mps 716 mmHg 76%
    19:00 +24°C° 0.1 mm 1 mps 716 mmHg 81%
    20:00 +23°C° 0.1 mm 1 mps 717 mmHg 85%
    21:00 +22°C° 0.1 mm 1 mps 717 mmHg 90%
    22:00 +22°C° 0 mm 1 mps 717 mmHg 91%
    23:00 +21°C° 0 mm 1 mps 717 mmHg 92%

    24 February, Saturday

    Time Temperature Precipitation Wind Pressure Humidity
    00:00 +19°C° 0 mm 0 mps 717 mmHg 93%
    01:00 +18°C° 0 mm 0 mps 716 mmHg 94%
    02:00 +18°C° 0 mm 0 mps 716 mmHg 94%
    03:00 +17°C° 0 mm 0 mps 715 mmHg 94%
    04:00 +17°C° 0 mm 0 mps 715 mmHg 94%
    05:00 +17°C° 0 mm 0 mps 716 mmHg 93%
    06:00 +17°C° 0 mm 0 mps 716 mmHg 93%
    07:00 +19°C° 0 mm 0 mps 716 mmHg 83%
    08:00 +21°C° 0 mm 0 mps 717 mmHg 74%
    09:00 +26°C° 0 mm 1 mps 717 mmHg 64%
    10:00 +27°C° 0 mm 1 mps 717 mmHg 58%
    11:00 +29°C° 0 mm 1 mps 716 mmHg 53%
    12:00 +31°C° 0 mm 1 mps 716 mmHg 47%
    13:00 +31°C° 0.3 mm 1 mps 715 mmHg 50%
    14:00 +31°C° 0.3 mm 2 mps 714 mmHg 53%
    15:00 +31°C° 0.3 mm 2 mps 713 mmHg 56%
    16:00 +29°C° 0.8 mm 1 mps 714 mmHg 63%
    17:00 +28°C° 0.8 mm 1 mps 714 mmHg 71%
    18:00 +26°C° 0.8 mm 1 mps 714 mmHg 78%
    19:00 +25°C° 0.5 mm 1 mps 714 mmHg 81%
    20:00 +22°C° 0.5 mm 0 mps 715 mmHg 84%
    21:00 +21°C° 0.5 mm 0 mps 716 mmHg 87%
    22:00 +20°C° 0.1 mm 0 mps 716 mmHg 89%
    23:00 +19°C° 0.1 mm 0 mps 716 mmHg 91%

    25 February, Sunday

    Time Temperature Precipitation Wind Pressure Humidity
    00:00 +19°C° 0.1 mm 0 mps 715 mmHg 93%
    01:00 +18°C° 0 mm 0 mps 715 mmHg 93%
    02:00 +18°C° 0 mm 0 mps 715 mmHg 94%
    03:00 +17°C° 0 mm 0 mps 714 mmHg 94%
    04:00 +17°C° 0 mm 0 mps 715 mmHg 93%
    05:00 +17°C° 0 mm 0 mps 715 mmHg 93%
    06:00 +17°C° 0 mm 0 mps 715 mmHg 92%
    07:00 +19°C° 0 mm 0 mps 716 mmHg 82%
    08:00 +22°C° 0 mm 0 mps 716 mmHg 72%
    09:00 +24°C° 0 mm 0 mps 717 mmHg 63%
    10:00 +26°C° 0 mm 0 mps 716 mmHg 55%
    11:00 +30°C° 0 mm 1 mps 716 mmHg 48%
    12:00 +32°C° 0 mm 1 mps 716 mmHg 41%
    13:00 +32°C° 0 mm 1 mps 715 mmHg 39%
    14:00 +34°C° 0 mm 2 mps 714 mmHg 38%
    15:00 +34°C° 0 mm 2 mps 714 mmHg 37%
    16:00 +31°C° 0 mm 1 mps 714 mmHg 45%
    17:00 +28°C° 0 mm 1 mps 714 mmHg 54%
    18:00 +26°C° 0 mm 1 mps 714 mmHg 62%
    19:00 +25°C° 0 mm 1 mps 715 mmHg 66%
    20:00 +24°C° 0 mm 1 mps 716 mmHg 70%
    21:00 +22°C° 0 mm 1 mps 716 mmHg 74%
    22:00 +22°C° 0 mm 1 mps 716 mmHg 76%
    23:00 +21°C° 0 mm 1 mps 716 mmHg 79%
    Show more